Location: Perryvale
(54.4667°N, 113.3833°W)
Time: 00:08:01
(UTC+00:00)

Vanguard 1 - Pass Details

Date: 26 May 2024
Orbit: 652 x 3825 km, 34.2° (Epoch: 13 June)

Event Time Altitude Azimuth Distance (km) Brightness Sun altitude
Rises 09:20:02 0° 266° (W) 6,148 13.8 -10.7°
Reaches altitude 10° 09:25:55 10° 249° (WSW) 5,691 13.5 -10.4°
Maximum altitude 09:35:41 17° 216° (SW) 5,775 13.3 -9.7°
Drops below altitude 10° 09:47:19 10° 184° (S) 6,853 13.8 -8.8°
Sets 09:56:00 0° 169° (SSE) 7,947 14.3 -8.1°
